Troy, Minnesota
Current Conditions -  °F | °C
As of 3:33 AM on Friday 24 Oct 2014 (Local Time) from KONA Reporting Station
Overcast Overcast  
Wind Chill: 52°   Ceiling: 500
Heat Index: 52°   Visibility: 7mi
Dew Point: 50°   Wind: 3mph
Humidity: 94%   Direction: 130°SE
Pressure: 30.01"   Gusts: NA
Location:  43.9334°N, 92.0195°W
Report Text: KONA 240833Z AUTO 13003KT 7SM OVC005 11/10 A3001 RMK AO2
Loading
Personal Weather Stations






























Interactive Weather Map
Tropical Storm Tracking
New forecast layout! Learn more

10-Day Weather Forecast

Advertisements
Track Severe Weather on mobile